STARLINK-34375

导读

STARLINK-34375是美国SpaceX公司星链(Starlink)星座中的一颗卫星,于2025年6月23日发射升空。星链项目旨在构建全球卫星互联网星座,为全球提供低延迟、高速率的宽带互联网服务,该卫星入轨后将进一步扩充星链星座的规模,提升星座服务覆盖能力与网络稳定性。

Basic Information
目录编号:
64477
目录名称:
STARLINK-34375
国际标识:
2025-133F
轨道中心:
EARTH
卫星名称:
STARLINK-34375
卫星全名:
STARLINK-34375
卫星状态:
在轨 (已飞行356 天)
发射日期:
2025-06-23 UTC
国别 :
美国 (US)
星等 :
--
Orbit Information
数据来源 国际轨道数据
星历时间: 2026-06-14T04:23:43+0800
5小时前
查看轨道信息
半长轴: 6840.936km
偏心率: 0.0001203
轨道倾角: 53.159°
近地点辐角 85.636°
升交点赤经 27.119°
平近点角 274.478°
近地点: 461.976km
远地点: 463.622km
周期: 93.850分钟
每日圈数: 15.343678
Detailed Information
使用方式:
暂无
2D Orbit Map
3D Orbit Map
Orbit Altitude Analysis Chart
Orbit Inclination Analysis Chart
Orbit Comprehensive Analysis Chart
View Comprehensive Chart